Погода в Ермаках

Россия / Иркутская область     56°37′40″N   107°48′55″E
темп.,
°C
ветер,
м/с
пор.,
м/с
влажн.,
%
обл.,
%
осадки,
мм/ч
давл.,
гПа
погр.,
м
19 апреля, пн
пн1923:00−9ю1195100 0.0 102423
02:00−9юв1296100 0.0 102432
05:00−12юв119798 0.0 102311
08:00−6ююв25725 0.0 1021238
11:000ю59594 0.0 10171078
14:00+3ююв5963100 0.0 10131402
17:00+2юв41165100 0.0 10091054
20:00−2ююв31285100 0.6 1004466
20 апреля, вт
вт2023:00−1ююз61573100 0.6 1002792
02:00−3зюз5107793 0.6 1006860
05:00−7юз51083100 0.1 10111172
08:00−6юз6107495 0.2 10131232
11:00−3зюз695281 0.0 10141677
14:00−1зюз5945100 0.0 10142327
17:000зюз4948100 0.0 10152428
20:00−6зюз257320 0.0 101783
21 апреля, ср
ср2123:00−7зюз2875100 0.0 1018162
02:00−9ююз26855 0.0 101994
05:00−8юз298737 0.0 1019239
08:00−5зюз486898 0.0 10191043
11:00−3зюз4652100 0.1 10202019
14:00−2з4653100 0.2 10211564
17:00−1зсз3449100 0.1 10211613
20:00−5зсз1181100 0.3 102410
22 апреля, чт
чт2223:00−6всв008946 0.1 102711
02:00−9сз11965 0.1 102910
05:00−10с119856 0.0 103111
08:00−5всв11785 0.0 1032218
11:000всв225932 0.0 10321095
14:00+2всв2246100 0.1 10321867
17:00+2св224541 0.0 10321573
20:00−4с11867 0.0 103410
23 апреля, пт
пт2323:00−5сз21905 0.0 103716
02:00−7зсз11946 0.0 103810
05:00−8зюз009612 0.0 104010
08:00−2ююз11695 0.0 1041195
11:00+3зсз3449100 0.1 10411764
14:00+4зсз3541100 0.1 10412087
17:00+4ссз4446100 0.0 10411589
20:00−1ссз228456 0.0 104412